| time (UTC) | temp F | wind direction | speed knots | gust knots | rain 1hr in | rain 24hr in | rain mn in | humidity % | barometer mb |
| 20260505111553 | 59 | 0 | 0.0 | 0.0 | 0.00 | 0.00 | 0.00 | 69 | 1012.3 |
| 20260505101554 | 56 | 0 | 0.0 | 0.0 | 0.00 | 0.00 | 0.00 | 73 | 1011.7 |
| 20260505100049 | 56 | 0 | 0.0 | 0.0 | 0.00 | 0.00 | 0.00 | 73 | 1011.6 |
| 20260505094551 | 56 | 0 | 0.0 | 0.9 | 0.00 | 0.00 | 0.00 | 72 | 1011.2 |
| 20260505093055 | 57 | 0 | 0.0 | 1.7 | 0.00 | 0.00 | 0.00 | 72 | 1011.2 |
| 20260505091553 | 57 | 0 | 0.0 | 1.7 | 0.00 | 0.00 | 0.00 | 73 | 1011.3 |
| 20260505090056 | 56 | 0 | 0.0 | 0.0 | 0.00 | 0.00 | 0.00 | 73 | 1011.1 |
| 20260505084550 | 56 | 0 | 0.0 | 0.0 | 0.00 | 0.00 | 0.00 | 73 | 1011.1 |
| 20260505083054 | 56 | 0 | 0.0 | 0.0 | 0.00 | 0.00 | 0.00 | 73 | 1011.3 |
| 20260505081600 | 56 | 0 | 0.0 | 0.9 | 0.00 | 0.00 | 0.00 | 75 | 1011.2 |
| 20260505080053 | 54 | 0 | 0.0 | 0.9 | 0.00 | 0.00 | 0.00 | 78 | 1011.1 |
| 20260505074558 | 54 | 0 | 0.0 | 0.0 | 0.00 | 0.00 | 0.00 | 79 | 1011.3 |
| 20260505073103 | 54 | 0 | 0.0 | 0.0 | 0.00 | 0.00 | 0.00 | 79 | 1011.2 |
| 20260505071558 | 54 | 0 | 0.0 | 0.0 | 0.00 | 0.00 | 0.00 | 78 | 1011.1 |
| 20260505070049 | 55 | 0 | 0.0 | 0.0 | 0.00 | 0.00 | 0.00 | 76 | 1010.9 |
| 20260505064552 | 55 | 0 | 0.0 | 0.0 | 0.00 | 0.00 | 0.00 | 74 | 1011.0 |
| 20260505063048 | 56 | 0 | 0.0 | 0.0 | 0.00 | 0.00 | 0.00 | 74 | 1011.2 |
| 20260505061555 | 56 | 0 | 0.0 | 0.0 | 0.00 | 0.00 | 0.00 | 73 | 1011.1 |
| 20260505060049 | 57 | 0 | 0.0 | 0.0 | 0.00 | 0.00 | 0.00 | 71 | 1011.1 |
| 20260505054624 | 58 | 0 | 0.0 | 0.0 | 0.00 | 0.00 | 0.00 | 69 | 1011.3 |
| 20260505053102 | 59 | 0 | 0.0 | 0.0 | 0.00 | 0.00 | 0.00 | 67 | 1011.2 |
| 20260505051553 | 60 | 0 | 0.0 | 0.0 | 0.00 | 0.00 | 0.00 | 66 | 1011.3 |
| 20260505041557 | 57 | 0 | 0.0 | 0.9 | 0.00 | 0.00 | 0.00 | 70 | 1010.9 |
| 20260505040050 | 57 | 0 | 0.0 | 0.0 | 0.00 | 0.00 | 0.00 | 70 | 1011.0 |
| 20260505034547 | 58 | 0 | 0.0 | 0.0 | 0.00 | 0.00 | 0.00 | 68 | 1011.0 |
| 20260505033051 | 58 | 0 | 0.0 | 0.0 | 0.00 | 0.00 | 0.00 | 66 | 1011.1 |
| 20260505031604 | 59 | 0 | 0.0 | 0.0 | 0.00 | 0.00 | 0.00 | 64 | 1011.0 |
| 20260505030047 | 59 | 0 | 0.0 | 0.0 | 0.00 | 0.00 | 0.00 | 63 | 1011.0 |
| 20260505024548 | 60 | 0 | 0.0 | 0.0 | 0.00 | 0.00 | 0.00 | 62 | 1011.0 |
| 20260505023100 | 61 | 0 | 0.0 | 0.0 | 0.00 | 0.00 | 0.00 | 59 | 1011.0 |
| 20260505021552 | 61 | 0 | 0.0 | 0.0 | 0.00 | 0.00 | 0.00 | 58 | 1011.0 |
| 20260505020054 | 62 | 0 | 0.0 | 0.0 | 0.00 | 0.00 | 0.00 | 57 | 1011.1 |
| 20260505014556 | 63 | 0 | 0.0 | 0.0 | 0.00 | 0.00 | 0.00 | 56 | 1010.8 |
| 20260505013105 | 63 | 0 | 0.0 | 0.0 | 0.00 | 0.00 | 0.00 | 55 | 1010.7 |
| 20260505011552 | 64 | 0 | 0.0 | 0.0 | 0.00 | 0.00 | 0.00 | 52 | 1010.5 |
| 20260505010053 | 65 | 0 | 0.0 | 0.0 | 0.00 | 0.00 | 0.00 | 50 | 1010.4 |
| 20260505004556 | 66 | 0 | 0.0 | 0.0 | 0.00 | 0.00 | 0.00 | 49 | 1010.4 |
| 20260505003049 | 67 | 0 | 0.0 | 0.0 | 0.00 | 0.00 | 0.00 | 47 | 1010.3 |
| 20260505001552 | 68 | 0 | 0.0 | 1.7 | 0.00 | 0.00 | 0.00 | 47 | 1010.3 |
| 20260505000107 | 69 | 0 | 0.0 | 0.9 | 0.00 | 0.00 | 0.00 | 45 | 1010.2 |
| 20260504234546 | 69 | 181 | 0.0 | 1.7 | 0.00 | 0.00 | 0.00 | 44 | 1010.2 |
| 20260504233054 | 70 | 0 | 0.0 | 1.7 | 0.00 | 0.00 | 0.00 | 43 | 1010.3 |
| 20260504231552 | 71 | 0 | 0.0 | 3.5 | 0.00 | 0.00 | 0.00 | 43 | 1010.3 |
| 20260504230104 | 72 | 255 | 0.0 | 2.6 | 0.00 | 0.00 | 0.00 | 40 | 1010.3 |
| 20260504224552 | 72 | 243 | 0.9 | 1.7 | 0.00 | 0.00 | 0.00 | 39 | 1010.2 |
| 20260504223051 | 72 | 207 | 0.0 | 2.6 | 0.00 | 0.00 | 0.00 | 39 | 1010.2 |
| 20260504221600 | 72 | 269 | 0.0 | 3.5 | 0.00 | 0.00 | 0.00 | 40 | 1009.9 |
| 20260504220055 | 73 | 0 | 0.0 | 1.7 | 0.00 | 0.00 | 0.00 | 38 | 1010.0 |
| 20260504214548 | 74 | 177 | 0.0 | 1.7 | 0.00 | 0.00 | 0.00 | 37 | 1010.0 |
| 20260504213053 | 74 | 142 | 0.0 | 2.6 | 0.00 | 0.00 | 0.00 | 37 | 1010.0 |
| 20260504211550 | 75 | 155 | 0.0 | 2.6 | 0.00 | 0.00 | 0.00 | 37 | 1010.1 |
| 20260504210054 | 75 | 62 | 0.0 | 2.6 | 0.00 | 0.00 | 0.00 | 36 | 1010.2 |
| 20260504204549 | 77 | 160 | 0.9 | 3.5 | 0.00 | 0.00 | 0.00 | 35 | 1010.2 |
| 20260504203101 | 78 | 0 | 0.9 | 2.6 | 0.00 | 0.00 | 0.00 | 33 | 1010.3 |
| 20260504201550 | 78 | 282 | 0.9 | 5.2 | 0.00 | 0.00 | 0.00 | 35 | 1010.4 |
| 20260504200050 | 78 | 303 | 0.0 | 5.2 | 0.00 | 0.00 | 0.00 | 33 | 1010.5 |
| 20260504194549 | 77 | 127 | 0.9 | 4.3 | 0.00 | 0.00 | 0.00 | 35 | 1010.8 |
| 20260504193048 | 78 | 355 | 0.9 | 4.3 | 0.00 | 0.00 | 0.00 | 34 | 1011.1 |
| 20260504191547 | 78 | 223 | 0.9 | 3.5 | 0.00 | 0.00 | 0.00 | 32 | 1011.3 |
| 20260504190112 | 77 | 278 | 0.9 | 4.3 | 0.00 | 0.00 | 0.00 | 37 | 1011.7 |
| 20260504184551 | 77 | 135 | 0.9 | 4.3 | 0.00 | 0.00 | 0.00 | 35 | 1011.9 |
| 20260504183101 | 77 | 295 | 0.9 | 3.5 | 0.00 | 0.00 | 0.00 | 36 | 1012.1 |
| 20260504181558 | 77 | 304 | 1.7 | 4.3 | 0.00 | 0.00 | 0.00 | 32 | 1012.2 |
| 20260504180112 | 77 | 249 | 0.9 | 3.5 | 0.00 | 0.00 | 0.00 | 33 | 1012.4 |
| 20260504174557 | 76 | 0 | 0.9 | 5.2 | 0.00 | 0.00 | 0.00 | 32 | 1012.5 |
| 20260504173057 | 76 | 181 | 0.9 | 3.5 | 0.00 | 0.00 | 0.00 | 31 | 1012.6 |
| 20260504171600 | 76 | 86 | 0.9 | 2.6 | 0.00 | 0.00 | 0.00 | 34 | 1012.9 |